www.pogodaiklimat.ru

Погода и климат >> Архив погоды >> Россия >> Свердловская область >> Екатеринбург


АРХИВ ПОГОДЫ в Екатеринбурге

Время (UTC), дата Ветер
(напр.,м/с)
 
Видим.   Явления Облачность Т
(С)
Тd
(С)
f
(%)
Тe
(С)
Тes
(С)
Комфортность P
(гПа)
Po
(гПа)
Тmin
(С)
Tmax
(С)
R
(мм)
R24
(мм)
S
(см)
09 20.05 З 3 10 км слаб. ливневой дождь 10/10 600 м
[Cb calv]
+5.4 +2.0 79 +2 +2 очень
холодно
1006.2 972.3
12 20.05 СЗ 2
{12}
20 км {ливн. осадки} 9/9 600 м
[Cb calv]
+8.0 +0.4 59 +6 +7 очень
холодно
1006.4 972.8
15 20.05 СЗ 5-11
{11}
20 км 10/6 600 м
[Cb calv Ci fib]
+7.5 -1.8 52 +4 +4 очень
холодно
1007.1 973.4 +10.0 0.3
18 20.05 СЗ 2
{11}
10 км 8/3 600 м
[Sc Ci fib]
+4.3 +0.7 77 +2 +2 очень
холодно
1008.6 974.5
21 20.05 З 1 10 км 10/0
[Ac und Cc]
+3.4 +0.4 81 +2 +2 холодно 1008.4 974.2
00 21.05 З 2 10 км 10/0
[Ac und Cc]
+3.4 +0.4 81 +1 +1 холодно 1007.9 973.7
03 21.05 СЗ 3 10 км слаб. ливневой дождь 10/10 600 м
[Cb calv]
+3.4 +0.7 82 -0 -0 очень
холодно
1008.7 974.5 +2.9 0.3
06 21.05 СЗ 3
{10}
10 км слаб. крупа 10/10 600 м
[Cb cap]
+2.0 -0.7 82 -2 -2 очень
холодно
1010.1 975.7 +2.0
09 21.05 СЗ 4 4000 м слаб. крупа 10/10 600 м
[Cb cap]
+3.4 +0.4 81 -1 -1 очень
холодно
1011.3 977.0
12 21.05 СЗ 3
{10}
20 км слаб. ливневой дождь 9/9 600 м
[Cb calv]
+6.1 +0.2 66 +3 +4 очень
холодно
1012.2 978.2
15 21.05 СЗ 3 20 км {ливн. осадки} 9/9 600 м
[Cb calv]
+5.1 -0.9 65 +2 +2 очень
холодно
1013.4 979.2 +6.3 1
18 21.05 СЗ 2 10 км {ливн. осадки} 10/8 600 м
[Sc Cs]
+4.6 -0.8 68 +2 +2 очень
холодно
1013.8 979.5
21 21.05 З 2 10 км 9/9 600 м
[Sc]
+4.1 +0.8 79 +1 +1 холодно 1013.5 979.2
00 22.05 ЮЗ 1 10 км 9/8 600 м
[Sc Cs]
+3.0 +0.6 84 +1 +1 холодно 1013.5 979.1
03 22.05 З 2 10 км 9/6 1000 м
[Sc Cs]
+5.9 +0.9 70 +4 +5 холодно 1013.8 979.7 +2.9 0.0
06 22.05 З 3 20 км 9/8 1000 м
[Sc Cs]
+9.9 +0.2 51 +8 +10 холодно 1013.2 979.6
09 22.05 З 2
{10}
50 км в посл. час ливневой дождь 8/8 1000 м
[Cb cap]
+12.4 -1.8 37 +12 +15 по сезону 1012.4 979.1
12 22.05 З 2 50 км {ливн. осадки} 9/9 1000 м
[Cb cap]
+12.4 -5.0 29 +12 +13 прохладно 1011.9 978.6
15 22.05 ЮЗ 1 20 км 9/9 1000 м
[Sc]
+12.3 -5.2 29 +13 +13 по сезону 1011.5 978.2 +14.9 0.0
18 22.05 Ю 1 10 км 9/9 1000 м
[Sc]
+9.7 -2.4 43 +10 +10 по сезону 1011.9 978.3
21 22.05 Ю 1 10 км 8/8 1000 м
[Sc]
+7.7 -1.5 52 +7 +7 по сезону 1011.5 977.7
00 23.05 ЮЗ 1 20 км 10/0
[Ac trans Cs]
+5.8 -1.3 60 +5 +5 по сезону 1011.2 977.2
03 23.05 Ю 1 20 км 10/8 1000 м
[Sc Cs]
+11.1 -0.8 44 +11 +12 по сезону 1009.7 976.3 +5.4
06 23.05 ЮЗ 3 20 км 10/4 600 м
[Sc Ac und Cc]
+15.9 -1.5 30 +16 +19 тепло 1007.4 974.7
09 23.05 ЮЗ 4
{10}
20 км 9/8 600 м
[Sc Ac und]
+18.1 -1.4 27 +18 +19 тепло 1005.0 972.6
12 23.05 ЮЗ 3
{11}
20 км 10/8 600 м
[Sc Ac As]
+17.3 0.0 31 +17 +18 по сезону 1002.5 970.1
15 23.05 З 4
{12}
20 км 10/5 600 м
[Sc Ac und Ci fib]
+14.3 +5.8 57 +13 +13 по сезону 1000.8 968.2 +19.3
18 23.05 ЮЗ 3 10 км 10/8 600 м
[Cb calv Ac As]
+12.6 +7.4 71 +11 +11 по сезону 999.1 966.4
21 23.05 Ю 4 10 км слаб. ливневой дождь 10/10 600 м
[Cb calv]
+11.3 +8.9 85 +9 +9 по сезону 996.4 963.6
00 24.05 З 3
{10}
10 км слаб. ливневой дождь 10/10 600 м
[Cb calv]
+10.3 +8.7 90 +8 +8 по сезону 996.6 963.7
03 24.05 С 2 10 км слаб. ливневой дождь 10/10 600 м
[Cb calv]
+7.6 +5.6 87 +5 +5 прохладно 998.7 965.4 +7.6 4
06 24.05 СЗ 3 10 км {ливн. осадки} 10/10 300 м
[Cb cap]
+6.3 +3.5 82 +3 +3 очень
холодно
1001.0 967.4 +6.0
09 24.05 СЗ 2 10 км {ливн. осадки} 10/10 600 м
[Cb calv]
+6.9 +3.0 76 +5 +5 очень
холодно
1002.5 969.0
12 24.05 СЗ 3 20 км {ливн. осадки} 8/8 600 м
[Cb calv]
+9.5 -2.2 44 +8 +9 очень
холодно
1002.8 969.5
15 24.05 С 3
{12}
20 км 9/9 600 м
[Cb calv]
+7.0 -5.8 40 +5 +5 очень
холодно
1005.4 971.7 +10.4 0.7
18 24.05 СЗ 3
{11}
10 км 6/6 600 м
[Sc]
+4.6 -5.6 48 +2 +2 очень
холодно
1008.4 974.4
21 24.05 СЗ 3 10 км 1/1 600 м
[Sc]
+2.1 -3.8 65 -2 -2 очень
холодно
1010.5 976.1
00 25.05 СЗ 2 50 км 3/0
[Ac trans Ci fib]
+0.7 -4.3 69 -2 -2 очень
холодно
1012.7 978.0
03 25.05 СЗ 4 50 км 3/3 600 м
[Cu hum]
+3.7 -5.8 50 -0 +2 очень
холодно
1014.3 979.9 +0.5
06 25.05 СЗ 5-10
{10}
50 км слаб. крупа 9/9 600 м
[Cb cap]
+5.6 -7.7 38 +2 +3 очень
холодно
1015.0 980.8
09 25.05 СЗ 5-10
{12}
50 км 8/8 600 м
[Cb calv]
+8.3 -7.4 32 +5 +7 очень
холодно
1015.0 981.2
12 25.05 З 6-11
{13}
50 км 8/8 600 м
[Cu hum]
+9.4 -6.9 31 +7 +7 очень
холодно
1015.5 981.8
15 25.05 СЗ 4
{13}
50 км 3/3 600 м
[Cu hum]
+8.3 -7.2 33 +6 +6 очень
холодно
1016.4 982.5 +10.0 0.0
18 25.05 З 2 10 км 1/0
[Ac lent]
+5.6 -4.5 48 +4 +4 холодно 1018.0 983.7
21 25.05 Ю 1 10 км ясно +2.0 -3.5 67 +1 +1 очень
холодно
1019.6 984.9
00 26.05 ЮЗ 2 50 км 3/0
[Ci fib]
+1.2 -3.9 69 -2 -2 очень
холодно
1020.8 985.9
03 26.05 З 3 50 км 4/0
[Ci fib]
+7.6 -2.8 48 +5 +9 холодно 1020.9 986.8 +1.1
06 26.05 З 2
{10}
50 км 3/0
[Ci fib]
+13.9 -2.7 32 +14 +26 опасность
простуды
1019.9 986.5
09 26.05 З 3 50 км 10/0
[Ci fib]
+17.2 -2.4 26 +17 +27 тепло 1018.6 985.6
12 26.05 ЮЗ 2 50 км 10/0
[Ci fib]
+18.8 -2.7 23 +19 +25 тепло 1017.5 984.7
15 26.05 ЮЗ 2 50 км 10/0
[Cs]
+17.5 -2.6 25 +18 +18 тепло 1016.9 984.0 +19.6
18 26.05 Ю 2 10 км 10/0
[Cc]
+13.3 -2.4 34 +13 +13 по сезону 1017.6 984.3
21 26.05 Ю 2 10 км 10/0
[Cc]
+11.6 -2.1 38 +11 +11 по сезону 1017.6 984.1
00 27.05 ЮВ 2 10 км 10/0
[Ac und Cc]
+8.5 -0.7 52 +7 +7 по сезону 1017.5 983.6
03 27.05 ЮВ 1 50 км 10/0
[Cs]
+14.1 +2.3 45 +15 +19 тепло 1016.1 982.9 +8.3
06 27.05 ЮЗ 3 50 км 10/8 1000 м
[Sc Cs]
+21.3 +2.0 28 +21 +23 комфорт 1015.1 982.7

 

Местоположение метеостанции Екатеринбург (Свердловская область, Россия): широта 56.83 долгота 60.63 высота над уровнем моря 281 м.

В архиве по умолчанию представлена погода в Екатеринбурге за последнюю неделю. Архивные данные за месяц целиком и за предыдущие месяцы, начиная с января 2011 года, Вы можете получить, выбрав интересующий диапазон дат из раскрывающегося списка и нажав кнопку "Ввод!".


*Определитесь, кто Вы:
робот инопланетянин человек

Внимание! Время в таблицах - всемирное. Для получения местного времени необходимо прибавить поправку, которая равна 5 ч.

Смотрите также архив погоды в соседних городах и на ближайших метеорологических станциях:

Погода в Екатеринбурге (Бот.сад) (Свердловская область, Россия) (5 км)
Погода в Верхнем Дуброво (Свердловская область, Россия) (29 км)
Погода в Сысерти (Свердловская область, Россия) (38 км)
Погода в Ревде (Свердловская область, Россия) (40 км)
Погода в Мариинске (Свердловская область, Россия) (52 км)
Погода в Невьянске (Свердловская область, Россия) (78 км)
Погода в Верхнем Уфалее (Челябинская область, Россия) (86 км)
Погода в Каменск-Уральском (Свердловская область, Россия) (88 км)
Погода в Бисерти (Свердловская область, Россия) (95 км)
Погода в Артемовском (Свердловская область, Россия) (98 км)

Пояснения к столбцам:

Ветер - указаны скорость ветра в м/с - средняя за 10 мин, порывы в срок и между сроками (в фигурных скобках) и направление, откуда дует ветер: С - северный, СВ - северо-восточный, В - восточный, ЮВ - юго-восточный, Ю - южный, ЮЗ - юго-западный, З - западный, СЗ - северо-западный.
Видимость - горизонтальная дальность видимости в метрах или километрах. При видимости от 1 до 10 км при отсутствии осадков обычно наблюдается дымка, при ухудшении видимости до 1 км и менее - туман. В сухую погоду видимость может ухудшаться дымом, пылью или мглою.
Явления - указаны атмосферные явления, наблюдавшиеся в срок или в последний час перед сроком; фигурными скобками обозначены явления, наблюдавшиеся между сроками (за 1-3 часа до срока); квадратными скобками обозначены град или гололедные отложения с указанием их диаметра в мм.
Облачность - указаны через наклонную черту общая и нижняя облачность в баллах и высота нижней границы облаков в метрах; квадратными скобками обозначены формы облаков: Ci - перистые, Cs - перисто-слоистые, Cc - перисто-кучевые, Ac - высококучевые, As - высокослоистые, Sc - слоисто-кучевые, Ns - слоисто-дождевые, Cu - кучевые, Cb - кучево-дождевые. Подробнее классификацию облаков см. в Атласе облаков (PDF).
T - Температура воздуха - температура, измеренная на высоте 2 м над землей.
Td - Температура точки росы - температура, при понижении до которой содержащийся в воздухе водяной пар достигнет насыщения.
f - Относительная влажность воздуха - влажноcть воздуха, измеренная на высоте 2 м над землей.
Te - Эффективная температура - температура, которую ощущает одетый по сезону человек в тени. Характеристика душности погоды. При расчете учитывается влияние влажности воздуха и скорости ветра на теплоощущения человека.
Tes - Эффективная температура на солнце - температура, которую ощущает человек, с поправкой на солнечный нагрев. Характеристика знойности погоды. Зависит от высоты солнца над горизонтом, облачности и скорости ветра. Ночью, в пасмурную погоду, а также при ветре 12 м/с и более поправка равна нулю.
P - Атмосферное давление - приведенное к уровню моря атмосферное давление.
Po - Атмосферное давление - измеренное на уровне метеостанции атмосферное давление.
Tmin - Минимальная температура - минимум температуры воздуха на высоте 2 м над землей.
Tmax - Максимальная температура - максимум температуры воздуха на высоте 2 м над землей.
R - Количество осадков - Количество выпавших осадков за период времени, мм. При наведении курсора мыши на число - период времени, за который выпало указанное количество осадков.
R24 - Количество осадков - Количество выпавших осадков за 24 часа, мм.
S - Снежный покров - Высота снежного покрова, см. При наведении курсора мыши на число - состояние снежного покрова и степень покрытия местности в баллах.